TimeEST,TemperatureF,Dew PointF,Humidity,Sea Level PressureIn,VisibilityMPH,Wind Direction,Wind SpeedMPH,Gust SpeedMPH,PrecipitationIn,Events,Conditions,WindDirDegrees,DateUTC
12:53 AM,27.0,21.0,78,30.10,9.0,SSE,4.6,-,N/A,,Clear,160,2012-11-25 05:53:00
1:53 AM,28.0,21.0,75,30.09,10.0,SSW,5.8,-,N/A,,Clear,200,2012-11-25 06:53:00
2:53 AM,28.0,21.0,75,30.07,10.0,South,6.9,-,N/A,,Clear,190,2012-11-25 07:53:00
3:53 AM,28.9,21.0,72,30.05,10.0,SSW,10.4,-,N/A,,Clear,210,2012-11-25 08:53:00
4:53 AM,28.0,21.0,75,30.03,10.0,SSW,10.4,-,N/A,,Clear,200,2012-11-25 09:53:00
5:53 AM,30.0,21.0,69,30.01,10.0,SSW,10.4,-,N/A,,Clear,200,2012-11-25 10:53:00
6:53 AM,30.9,21.0,67,29.98,10.0,SSW,9.2,-,N/A,,Clear,200,2012-11-25 11:53:00
7:53 AM,32.0,21.0,64,29.98,10.0,SSW,9.2,-,N/A,,Clear,210,2012-11-25 12:53:00
8:53 AM,35.1,21.9,59,29.99,10.0,SW,13.8,-,N/A,,Clear,230,2012-11-25 13:53:00
9:53 AM,37.0,23.0,57,29.98,10.0,SW,13.8,20.7,N/A,,Clear,230,2012-11-25 14:53:00
10:53 AM,39.9,24.1,53,29.98,10.0,SW,12.7,18.4,N/A,,Clear,230,2012-11-25 15:53:00
11:53 AM,44.1,26.1,49,29.96,10.0,WSW,10.4,19.6,N/A,,Clear,250,2012-11-25 16:53:00
12:53 PM,46.0,26.1,46,29.94,10.0,WSW,10.4,19.6,N/A,,Clear,250,2012-11-25 17:53:00
1:53 PM,48.0,27.0,44,29.92,10.0,West,11.5,-,N/A,,Clear,270,2012-11-25 18:53:00
2:53 PM,46.9,27.0,46,29.91,10.0,SW,12.7,-,N/A,,Clear,220,2012-11-25 19:53:00
3:53 PM,48.0,28.0,46,29.93,10.0,West,8.1,-,N/A,,Clear,270,2012-11-25 20:53:00
4:53 PM,46.9,28.0,48,29.94,10.0,West,4.6,-,N/A,,Clear,260,2012-11-25 21:53:00
5:53 PM,46.0,28.0,50,29.95,10.0,WSW,3.5,-,N/A,,Clear,250,2012-11-25 22:53:00
6:53 PM,44.1,28.0,53,29.97,10.0,WSW,3.5,-,N/A,,Clear,250,2012-11-25 23:53:00
7:53 PM,37.9,28.0,68,30.00,10.0,Calm,Calm,-,N/A,,Clear,0,2012-11-26 00:53:00
8:53 PM,39.0,28.0,65,30.01,10.0,Calm,Calm,-,N/A,,Clear,0,2012-11-26 01:53:00
9:53 PM,37.0,30.0,76,30.02,10.0,Calm,Calm,-,N/A,,Clear,0,2012-11-26 02:53:00
10:53 PM,36.0,30.0,79,30.04,10.0,Calm,Calm,-,N/A,,Clear,0,2012-11-26 03:53:00
11:53 PM,35.1,28.9,78,30.04,10.0,Calm,Calm,-,N/A,,Clear,0,2012-11-26 04:53:00